Volver al catálogo

SL-3 DEB

ActivoPO
NORAD 14454·DEBRIS·🇷🇺 Russia

Lanzado Oct 28, 1983 desde Plesetsk Cosmodrome

Loading…

Próximos Pases (próximas 24 horas)

TLE

ActualizadoSource: Space-Track

Época: Sep 14, 2026, 00:24 UTC

1 14454U 83109C   26257.01725910  .00000078  00000-0  26110-4 0  9995
2 14454  81.1590 276.5563 0093849 327.0790  60.7630 14.26419664229636

Sigue SL-3 DEB en tiempo real con AllMySat

Download on the App Store